When you browse on this site, cookies collect data to enhance your experience and personalize the content and advertising you see.
Visit our Privacy Policy to learn more. By continuing to use the site, you agree to this use of cookies and data.
  • In Lithuania
  • List of Countries
  • For 7 days
  • Water Temperature
  • Weather Map
  • Weather Widgets
  • user-avatar
    Login

    Hourly Weather Liverpool

    Today, 22 September, Sunday

    Time Temperature Precipitation Wind Pressure Humidity
    00:00 +11°C° 0 mm 1 mps 763 mmHg 83%
    01:00 +11°C° 0 mm 1 mps 763 mmHg 83%
    02:00 +11°C° 0 mm 1 mps 764 mmHg 86%
    03:00 +10°C° 0 mm 2 mps 763 mmHg 88%
    04:00 +10°C° 0 mm 2 mps 763 mmHg 91%
    05:00 +10°C° 0 mm 2 mps 763 mmHg 94%
    06:00 +12°C° 0 mm 2 mps 763 mmHg 88%
    07:00 +14°C° 0 mm 2 mps 764 mmHg 82%
    08:00 +14°C° 0 mm 3 mps 764 mmHg 76%
    09:00 +17°C° 0 mm 3 mps 763 mmHg 69%
    10:00 +19°C° 0 mm 4 mps 763 mmHg 63%
    11:00 +22°C° 0 mm 4 mps 762 mmHg 56%
    12:00 +22°C° 0 mm 5 mps 762 mmHg 55%
    13:00 +23°C° 0 mm 5 mps 762 mmHg 53%
    14:00 +24°C° 0 mm 6 mps 762 mmHg 51%
    15:00 +23°C° 0 mm 6 mps 761 mmHg 55%
    16:00 +22°C° 0 mm 6 mps 761 mmHg 58%
    17:00 +21°C° 0 mm 6 mps 760 mmHg 62%
    18:00 +19°C° 0 mm 5 mps 760 mmHg 66%
    19:00 +16°C° 0 mm 5 mps 760 mmHg 70%
    20:00 +15°C° 0 mm 5 mps 760 mmHg 74%
    21:00 +15°C° 0 mm 5 mps 759 mmHg 79%
    22:00 +15°C° 0 mm 5 mps 759 mmHg 83%
    23:00 +15°C° 0 mm 6 mps 758 mmHg 88%

    Tomorrow, 23 September, Monday

    Time Temperature Precipitation Wind Pressure Humidity
    00:00 +15°C° 0 mm 6 mps 758 mmHg 87%
    01:00 +15°C° 0 mm 6 mps 757 mmHg 86%
    02:00 +16°C° 0 mm 6 mps 757 mmHg 84%
    03:00 +16°C° 0 mm 6 mps 757 mmHg 86%
    04:00 +16°C° 0 mm 6 mps 756 mmHg 87%
    05:00 +16°C° 0 mm 6 mps 756 mmHg 89%
    06:00 +17°C° 0 mm 6 mps 755 mmHg 86%
    07:00 +18°C° 0 mm 7 mps 755 mmHg 84%
    08:00 +20°C° 0 mm 7 mps 755 mmHg 81%
    09:00 +21°C° 0 mm 7 mps 755 mmHg 77%
    10:00 +23°C° 0 mm 8 mps 754 mmHg 73%
    11:00 +24°C° 0 mm 8 mps 754 mmHg 69%
    12:00 +26°C° 0 mm 8 mps 754 mmHg 68%
    13:00 +26°C° 0 mm 8 mps 753 mmHg 68%
    14:00 +26°C° 0 mm 8 mps 753 mmHg 67%
    15:00 +24°C° 0 mm 8 mps 753 mmHg 71%
    16:00 +23°C° 0 mm 7 mps 753 mmHg 76%
    17:00 +22°C° 0 mm 7 mps 752 mmHg 80%
    18:00 +21°C° 0 mm 6 mps 753 mmHg 83%
    19:00 +20°C° 0 mm 6 mps 753 mmHg 87%
    20:00 +20°C° 0 mm 6 mps 753 mmHg 90%
    21:00 +19°C° 0 mm 5 mps 753 mmHg 92%
    22:00 +19°C° 0 mm 5 mps 753 mmHg 93%
    23:00 +19°C° 0 mm 5 mps 752 mmHg 95%

    Day after tomorrow, 24 September, Tuesday

    Time Temperature Precipitation Wind Pressure Humidity
    00:00 +19°C° 0.1 mm 5 mps 752 mmHg 95%
    01:00 +19°C° 0.1 mm 5 mps 752 mmHg 96%
    02:00 +19°C° 0.1 mm 5 mps 753 mmHg 96%
    03:00 +19°C° 0 mm 4 mps 753 mmHg 96%
    04:00 +19°C° 0 mm 4 mps 753 mmHg 96%
    05:00 +19°C° 0 mm 3 mps 753 mmHg 96%
    06:00 +19°C° 0 mm 4 mps 753 mmHg 95%
    07:00 +19°C° 0 mm 4 mps 753 mmHg 94%
    08:00 +20°C° 0 mm 4 mps 753 mmHg 93%
    09:00 +20°C° 0.2 mm 4 mps 753 mmHg 93%
    10:00 +20°C° 0.2 mm 5 mps 753 mmHg 93%
    11:00 +20°C° 0.2 mm 5 mps 753 mmHg 93%
    12:00 +20°C° 0.3 mm 5 mps 753 mmHg 92%
    13:00 +20°C° 0.3 mm 5 mps 753 mmHg 92%
    14:00 +20°C° 0.3 mm 5 mps 753 mmHg 92%
    15:00 +19°C° 0.3 mm 5 mps 753 mmHg 94%
    16:00 +19°C° 0.3 mm 4 mps 753 mmHg 96%
    17:00 +18°C° 0.3 mm 3 mps 752 mmHg 97%
    18:00 +18°C° 0.1 mm 3 mps 753 mmHg 97%
    19:00 +18°C° 0.1 mm 3 mps 753 mmHg 97%
    20:00 +18°C° 0.1 mm 3 mps 753 mmHg 97%
    21:00 +18°C° 0.2 mm 4 mps 752 mmHg 97%
    22:00 +17°C° 0.2 mm 5 mps 752 mmHg 97%
    23:00 +17°C° 0.2 mm 6 mps 752 mmHg 96%

    25 September, Wednesday

    Time Temperature Precipitation Wind Pressure Humidity
    00:00 +16°C° 0 mm 5 mps 751 mmHg 97%
    01:00 +17°C° 0 mm 4 mps 751 mmHg 97%
    02:00 +16°C° 0 mm 3 mps 751 mmHg 97%
    03:00 +16°C° 0 mm 3 mps 751 mmHg 97%
    04:00 +16°C° 0 mm 2 mps 751 mmHg 98%
    05:00 +16°C° 0 mm 2 mps 751 mmHg 98%
    06:00 +18°C° 0 mm 1 mps 751 mmHg 96%
    07:00 +18°C° 0 mm 1 mps 750 mmHg 95%
    08:00 +19°C° 0 mm 1 mps 750 mmHg 94%
    09:00 +21°C° 0 mm 1 mps 750 mmHg 84%
    10:00 +21°C° 0 mm 2 mps 750 mmHg 74%
    11:00 +24°C° 0 mm 3 mps 750 mmHg 64%
    12:00 +24°C° 0 mm 3 mps 750 mmHg 64%
    13:00 +23°C° 0 mm 4 mps 750 mmHg 63%
    14:00 +23°C° 0 mm 4 mps 749 mmHg 63%
    15:00 +22°C° 0 mm 4 mps 750 mmHg 68%
    16:00 +21°C° 0 mm 4 mps 750 mmHg 74%
    17:00 +20°C° 0 mm 4 mps 750 mmHg 79%
    18:00 +19°C° 0 mm 4 mps 750 mmHg 82%
    19:00 +17°C° 0 mm 4 mps 750 mmHg 84%
    20:00 +15°C° 0 mm 4 mps 751 mmHg 87%
    21:00 +14°C° 0 mm 4 mps 751 mmHg 90%
    22:00 +13°C° 0 mm 4 mps 751 mmHg 93%
    23:00 +13°C° 0 mm 4 mps 751 mmHg 96%

    26 September, Thursday

    Time Temperature Precipitation Wind Pressure Humidity
    00:00 +12°C° 0 mm 4 mps 752 mmHg 96%
    01:00 +12°C° 0 mm 3 mps 752 mmHg 96%
    02:00 +11°C° 0 mm 3 mps 752 mmHg 96%
    03:00 +11°C° 0 mm 3 mps 753 mmHg 96%
    04:00 +12°C° 0 mm 2 mps 753 mmHg 96%
    05:00 +12°C° 0 mm 2 mps 753 mmHg 96%
    06:00 +13°C° 0 mm 2 mps 753 mmHg 93%
    07:00 +13°C° 0 mm 3 mps 753 mmHg 89%
    08:00 +16°C° 0 mm 3 mps 754 mmHg 86%
    09:00 +18°C° 0 mm 4 mps 753 mmHg 77%
    10:00 +20°C° 0 mm 5 mps 753 mmHg 68%
    11:00 +21°C° 0 mm 5 mps 753 mmHg 60%
    12:00 +22°C° 0 mm 5 mps 753 mmHg 59%
    13:00 +22°C° 0 mm 6 mps 753 mmHg 59%
    14:00 +22°C° 0 mm 6 mps 752 mmHg 58%
    15:00 +22°C° 0 mm 6 mps 753 mmHg 62%
    16:00 +21°C° 0 mm 7 mps 753 mmHg 66%
    17:00 +21°C° 0 mm 7 mps 753 mmHg 69%
    18:00 +19°C° 0.8 mm 6 mps 753 mmHg 78%
    19:00 +18°C° 0.8 mm 4 mps 754 mmHg 88%
    20:00 +16°C° 0.8 mm 3 mps 754 mmHg 97%
    21:00 +16°C° 0 mm 3 mps 754 mmHg 97%
    22:00 +14°C° 0 mm 3 mps 755 mmHg 97%
    23:00 +14°C° 0 mm 3 mps 755 mmHg 97%

    27 September, Friday

    Time Temperature Precipitation Wind Pressure Humidity
    00:00 +13°C° 0 mm 3 mps 755 mmHg 97%
    01:00 +13°C° 0 mm 3 mps 756 mmHg 97%
    02:00 +12°C° 0 mm 3 mps 756 mmHg 97%
    03:00 +12°C° 0 mm 3 mps 757 mmHg 96%
    04:00 +11°C° 0 mm 3 mps 757 mmHg 95%
    05:00 +11°C° 0 mm 3 mps 758 mmHg 95%
    06:00 +11°C° 0 mm 3 mps 758 mmHg 93%
    07:00 +12°C° 0 mm 4 mps 759 mmHg 92%
    08:00 +13°C° 0 mm 4 mps 759 mmHg 90%
    09:00 +14°C° 0 mm 4 mps 759 mmHg 81%
    10:00 +17°C° 0 mm 4 mps 760 mmHg 71%
    11:00 +19°C° 0 mm 4 mps 760 mmHg 61%
    12:00 +19°C° 0 mm 5 mps 760 mmHg 56%
    13:00 +20°C° 0 mm 5 mps 760 mmHg 50%
    14:00 +20°C° 0 mm 6 mps 760 mmHg 44%
    15:00 +19°C° 0 mm 5 mps 760 mmHg 47%
    16:00 +16°C° 0 mm 5 mps 761 mmHg 50%
    17:00 +15°C° 0 mm 5 mps 761 mmHg 53%
    18:00 +14°C° 0 mm 5 mps 762 mmHg 56%
    19:00 +13°C° 0 mm 5 mps 762 mmHg 59%
    20:00 +10°C° 0 mm 5 mps 763 mmHg 62%
    21:00 +10°C° 0 mm 5 mps 763 mmHg 62%
    22:00 +9°C° 0 mm 5 mps 763 mmHg 62%
    23:00 +10°C° 0 mm 4 mps 764 mmHg 63%
    Show more